Location: Unspecified
(40.5416°S, 0.0000°E)
Time: 03:10:42
(UTC+00:00)

Daily predictions for brighter satellites

Satellite Brightness Start Highest point End
(mag) Time Altitude Azimuth Time Altitude Azimuth Time Altitude Azimuth
USA 59 Rocket 3.2 02:22:47 25° ENE 02:24:31 27° ENE 02:32:11 10° SE
USA 281 3.6 03:06:48 10° SSE 03:11:59 58° SSE 03:11:59 58° SSE
Cosmos 2369 Rocket 3.4 03:20:17 37° SSE 03:20:17 37° SSE 03:23:40 10° SSE
Cosmos 407 Rocket 4.4 03:35:20 42° SSE 03:35:20 42° SSE 03:38:47 10° SSE
Cosmos 2026 Rocket 4.4 03:42:45 29° NNE 03:46:07 64° E 03:52:30 10° SSE
SJ 16-02 2.4 03:54:57 39° SSE 03:54:57 39° SSE 03:57:44 10° SSE
USA 238 DEB 4.0 03:54:13 57° W 03:55:14 61° SW 04:02:39 10° SSE
USA 238 4.0 03:54:22 57° W 03:55:24 62° SW 04:02:50 10° SSE
Meteor 1-20 Rocket 4.4 04:03:07 55° SW 04:03:07 55° SW 04:07:56 10° S
Cosmos 540 Rocket 3.5 04:03:02 68° NNE 04:03:02 68° NNE 04:07:27 10° NNE
Okean 1-7 Rocket 4.2 04:04:22 49° S 04:04:22 49° S 04:07:42 10° S
H-2A R/B 4.5 04:05:25 37° SSE 04:05:25 37° SSE 04:08:01 10° S
Iridium 4 Rocket 4.1 04:01:16 10° S 04:04:32 40° SSW 04:04:32 40° SSW
Cosmos 2251 Rocket 3.5 04:08:32 49° N 04:10:01 82° ENE 04:15:27 10° SSE
Cosmos 1076 Rocket 3.9 04:10:35 42° NNE 04:11:52 63° E 04:16:10 10° SSE
Cosmos 1190 Rocket 4.0 04:10:49 45° N 04:12:28 79° ENE 04:17:44 10° SSE
USA 59 Rocket 1.9 04:08:23 37° NW 04:12:39 83° SW 04:23:00 10° SE
Cosmos 1953 Rocket 3.9 04:18:30 18° N 04:21:41 67° E 04:26:05 10° SSE
Cosmos 468 Rocket 4.0 04:17:07 10° SSW 04:22:19 79° ESE 04:27:29 10° NNE
Meteor 1-5 Rocket 4.1 04:20:30 25° NNW 04:23:57 80° W 04:29:51 10° S
NOAA 12 3.9 04:19:15 10° N 04:24:30 75° WNW 04:29:49 10° SSW
BREEZE-M DEB (TANK) 4.2 04:24:14 28° SW 04:26:22 40° S 04:39:16 10° ESE
Delta 2 Rocket 4.3 04:27:08 27° NNE 04:27:08 27° NNE 04:29:43 10° ENE
ISS -3.5 04:30:26 65° SSE 04:30:30 66° SSE 04:33:53 10° ENE
Cosmos 371 Rocket 3.8 04:30:57 40° SW 04:30:57 40° SW 04:35:16 10° S
Meteor 1-25 Rocket 4.5 04:32:07 41° WNW 04:33:11 46° WSW 04:38:40 10° S
CRYOSAT 2 4.3 04:30:37 10° S 04:35:37 87° W 04:40:32 10° N
IGS 5A 4.2 04:32:13 10° NNE 04:36:05 51° ESE 04:40:01 10° S
Cosmos 1833 4.3 04:35:00 10° SSW 04:40:37 52° WNW 04:46:13 10° N
Cosmos 967 Rocket 4.4 04:36:31 19° NNW 04:41:09 88° WSW 04:47:27 10° SSE
Cosmos 676 Rocket 3.9 04:37:45 12° NNW 04:42:37 88° ENE 04:47:52 10° SSE
Cosmos 2297 Rocket 4.4 04:38:10 10° S 04:42:51 25° SE 04:47:28 10° ENE
USA 290 2.0 04:43:21 68° SW 04:43:39 77° WNW 04:46:50 10° NNE
Cosmos 1825 Rocket 4.1 04:45:37 36° WSW 04:45:37 36° WSW 04:49:29 10° S
H-2A R/B 4.3 04:43:21 10° SSW 04:44:32 15° SSW 04:44:32 15° SSW
MOS 1 Rocket 4.2 04:43:08 10° NNE 04:47:45 50° ESE 04:52:11 10° S
Iridium 45 4.4 04:45:09 10° S 04:47:50 51° SW 04:47:50 51° SW
SL-16 R/B 2.9 04:42:59 10° SSE 04:49:12 68° ENE 04:55:22 10° N
BlueWalker 3 3.6 04:49:19 19° SSW 04:49:41 19° SSW 04:52:24 10° SSE
Cosmos 1954 Rocket 4.1 04:49:49 23° NW 04:52:54 54° WSW 04:58:01 10° S
SMAP 4.4 04:55:03 10° NE 04:59:27 42° ESE 05:03:55 10° S
Meteor 2-4 Rocket 3.9 04:53:42 10° SSW 04:59:34 56° W 05:05:17 10° N
Cosmos 2369 Rocket 3.9 05:02:05 14° SW 05:02:48 15° SW 05:05:54 10° SSW
CZ-4 R/B 4.0 05:02:21 10° N 05:06:53 48° W 05:11:35 10° SSW
SWARM A 4.3 05:06:40 10° NNW 05:09:52 49° W 05:13:08 10° S
Tiangong 0.7 05:08:24 10° N 05:09:59 13° NE 05:11:35 10° ENE
Meteor 1-28 Rocket 3.7 05:07:22 10° SSE 05:10:40 54° E 05:13:55 10° N
Cosmos 1238 Rocket 3.8 05:06:40 10° SSW 05:10:58 33° W 05:14:54 10° NNW
Cosmos 1484 Rocket 2.7 05:12:18 10° NNE 05:15:41 71° ESE 05:19:09 10° S
IRS-1D 4.2 05:11:03 10° NNW 05:15:42 32° W 05:20:28 10° SSW
UNK 4.5 05:16:18 10° SSE 05:20:52 57° E 05:25:23 10° N
Cosmos 1151 Rocket 3.7 05:16:48 10° S 05:21:10 61° E 05:25:26 10° NNE
Cosmos 1842 Rocket 3.9 05:19:09 10° SSW 05:23:25 43° W 05:27:35 10° NNW
Cosmos 1553 Rocket 4.1 05:18:45 10° SSW 05:24:45 50° W 05:30:36 10° NNW
Cosmos 2266 Rocket 3.9 05:19:24 10° N 05:25:28 82° W 05:31:37 10° S
Cosmos 1697 Rocket 4.1 05:21:03 10° N 05:26:19 43° ENE 05:31:38 10° SE
Cosmos 968 Rocket 3.5 05:23:14 10° NNW 05:28:26 63° WSW 05:33:42 10° SSE
SJ 16-02 3.4 05:31:34 10° WSW 05:32:05 10° SW 05:32:35 10° SW
Cosmos 1975 2.8 05:35:09 10° N 05:38:50 78° E 05:42:36 10° S
Cosmos 1536 3.4 05:36:38 10° NW 05:39:56 31° WSW 05:43:18 10° SSW
COSMOS 2455 2.9 05:35:46 10° NW 05:41:45 69° WSW 05:47:49 10° SSE
Cosmos 1741 Rocket 4.0 05:36:46 10° NNW 05:42:05 77° WSW 05:47:27 10° SSE
Cosmos 1461 2.8 05:39:28 10° SW 05:42:56 46° WNW 05:46:28 10° NNE
Cosmos 292 Rocket 3.9 05:40:10 10° NW 05:44:51 55° WSW 05:49:33 10° S
Thor Agena Rocket 3.7 05:42:44 10° NNE 05:47:47 79° ESE 05:52:56 10° SSW
Cosmos 1656 4.1 05:42:41 10° NW 05:48:00 42° WSW 05:53:26 10° S
Cosmos 2227 Rocket 4.0 05:43:13 10° S 05:48:21 33° ESE 05:53:26 10° ENE
Cosmos 841 Rocket 4.1 05:45:06 10° SW 05:49:45 33° W 05:54:20 10° NNW
BREEZE M DEB (TANK) 3.7 05:48:06 10° SW 05:50:21 31° SSE 05:53:27 10° E
Cosmos 1766 4.3 05:51:00 10° WNW 05:53:19 18° WSW 05:55:40 10° SSW
Cosmos 1655 Rocket 4.2 05:47:26 10° N 05:53:40 83° E 06:00:01 10° S
Meteor 2-9 Rocket 4.1 05:51:54 10° NNW 05:57:14 74° W 06:02:45 10° S
